N5ZP Weather Reports


time (UTC)temp
F
wind
direction
speed
knots
gust
knots
rain 1hr
in
rain 24hr
in
rain mn
in
humidity
%
barometer
mb
20260509211259 87 200 0.9 1.7 0.00 0.00 0.00 52 1005.6
20260509210756 88 161 2.6 5.2 0.00 0.00 0.00 52 1005.5
20260509210254 88 284 1.7 3.5 0.00 0.00 0.00 50 1005.6
20260509205753 89 89 1.7 2.6 0.00 0.00 0.00 49 1005.9
20260509205248 89 228 0.0 3.5 0.00 0.00 0.00 47 1005.8
20260509204745 89 284 1.7 3.5 0.00 0.00 0.00 47 1005.8
20260509204241 89 274 0.0 1.7 0.00 0.00 0.00 51 1005.8
20260509203737 91 181 1.7 2.6 0.00 0.00 0.00 47 1006.0
20260509203235 91 238 0.0 0.9 0.00 0.00 0.00 45 1006.1
20260509202731 90 211 1.7 1.7 0.00 0.00 0.00 44 1006.4
20260509202227 88 242 0.9 1.7 0.00 0.00 0.00 47 1006.3
20260509201726 88 242 0.0 1.7 0.00 0.00 0.00 50 1006.4
20260509201223 87 7 0.9 3.5 0.00 0.00 0.00 49 1006.5
20260509200721 87 51 2.6 5.2 0.00 0.00 0.00 52 1006.4
20260509200221 88 73 1.7 2.6 0.00 0.00 0.00 49 1006.5
20260509195718 89 248 0.9 2.6 0.00 0.00 0.00 49 1006.5
20260509195213 90 202 0.9 11.3 0.00 0.00 0.00 51 1006.7
20260509194712 89 238 0.0 0.9 0.00 0.00 0.00 46 1006.7
20260509194209 88 236 0.0 0.9 0.00 0.00 0.00 53 1006.7
20260509193706 88 216 1.7 3.5 0.00 0.00 0.00 48 1006.7
20260509193206 86 234 1.7 2.6 0.00 0.00 0.00 52 1006.9
20260509192703 87 266 2.6 2.6 0.00 0.00 0.00 58 1007.1
20260509192158 86 176 1.7 3.5 0.00 0.00 0.00 53 1006.9
20260509191653 86 357 2.6 2.6 0.00 0.00 0.00 53 1007.0
20260509191150 87 333 1.7 3.5 0.00 0.00 0.00 50 1006.9
20260509190646 88 58 1.7 5.2 0.00 0.00 0.00 51 1006.9
20260509190143 88 234 0.0 0.9 0.00 0.00 0.00 54 1007.1
20260509185641 87 240 0.9 2.6 0.00 0.00 0.00 51 1007.2
20260509185137 87 201 1.7 2.6 0.00 0.00 0.00 55 1007.0
20260509184635 88 220 0.0 0.9 0.00 0.00 0.00 47 1007.3
20260509184131 88 226 0.0 1.7 0.00 0.00 0.00 52 1007.5
20260509183628 87 226 0.0 1.7 0.00 0.00 0.00 54 1007.4
20260509183123 86 255 2.6 3.5 0.00 0.00 0.00 56 1007.4
20260509182619 86 238 0.9 3.5 0.00 0.00 0.00 51 1007.6
20260509182117 86 308 0.9 2.6 0.00 0.00 0.00 50 1007.5
20260509181615 86 256 4.3 5.2 0.00 0.00 0.00 52 1007.5
20260509181111 86 226 0.9 1.7 0.00 0.00 0.00 55 1007.5
20260509180608 86 235 0.9 2.6 0.00 0.00 0.00 53 1007.6
20260509180105 85 244 1.7 3.5 0.00 0.00 0.00 53 1007.9
20260509175600 85 4 2.6 5.2 0.00 0.00 0.00 56 1007.6
20260509175058 85 337 2.6 6.1 0.00 0.00 0.00 53 1007.6
20260509174554 86 14 4.3 6.1 0.00 0.00 0.00 51 1007.8
20260509174050 86 238 0.0 1.7 0.00 0.00 0.00 55 1007.8
20260509173549 87 261 4.3 7.0 0.00 0.00 0.00 54 1007.9
20260509173046 87 245 1.7 3.5 0.00 0.00 0.00 55 1007.7
20260509172544 88 263 0.9 1.7 0.00 0.00 0.00 51 1007.8
20260509172039 87 238 3.5 3.5 0.00 0.00 0.00 56 1008.1
20260509171535 86 226 1.7 2.6 0.00 0.00 0.00 57 1007.9
20260509171032 86 247 2.6 6.1 0.00 0.00 0.00 54 1007.9
20260509170527 85 251 3.5 5.2 0.00 0.00 0.00 58 1008.1
20260509170023 84 240 1.7 2.6 0.00 0.00 0.00 56 1008.1
20260509165522 86 245 3.5 6.1 0.00 0.00 0.00 53 1008.0
20260509165018 85 234 2.6 5.2 0.00 0.00 0.00 59 1008.2
20260509164514 83 10 3.5 3.5 0.00 0.00 0.00 55 1008.4
20260509164010 83 246 1.7 5.2 0.00 0.00 0.00 56 1008.2
20260509163508 84 346 4.3 7.0 0.00 0.00 0.00 55 1008.3
20260509163007 84 300 3.5 6.1 0.00 0.00 0.00 55 1008.4
20260509162506 84 234 2.6 5.2 0.00 0.00 0.00 57 1008.3
20260509162001 83 234 1.7 7.8 0.00 0.00 0.00 58 1008.4
20260509161458 83 227 3.5 7.8 0.00 0.00 0.00 59 1008.2
20260509160953 82 247 4.3 7.8 0.00 0.00 0.00 58 1008.3
20260509160449 82 356 2.6 3.5 0.00 0.00 0.00 58 1008.2
20260509155944 82 241 3.5 6.1 0.00 0.00 0.00 58 1008.3
20260509155441 82 233 1.7 6.1 0.00 0.00 0.00 59 1008.4
20260509154938 82 270 1.7 3.5 0.00 0.00 0.00 60 1008.3
20260509154434 82 247 3.5 6.1 0.00 0.00 0.00 60 1008.2
20260509153931 82 191 2.6 8.7 0.00 0.00 0.00 59 1008.1
20260509153428 81 261 1.7 5.2 0.00 0.00 0.00 59 1008.2
20260509152925 80 236 1.7 3.5 0.00 0.00 0.00 61 1008.3
20260509152421 80 234 3.5 7.0 0.00 0.00 0.00 61 1008.2
20260509151918 81 228 0.9 6.1 0.00 0.00 0.00 60 1008.1
20260509151414 81 307 1.7 3.5 0.00 0.00 0.00 60 1008.4
20260509150912 80 254 0.9 3.5 0.00 0.00 0.00 61 1008.4
20260509150410 80 256 1.7 6.1 0.00 0.00 0.00 62 1008.3
20260509145908 81 247 1.7 6.1 0.00 0.00 0.00 60 1008.5
20260509145407 82 242 1.7 5.2 0.00 0.00 0.00 57 1008.6
20260509144903 82 225 1.7 1.7 0.00 0.00 0.00 61 1008.6
20260509144400 80 237 1.7 3.5 0.00 0.00 0.00 61 1008.2
20260509143857 80 241 2.6 3.5 0.00 0.00 0.00 61 1008.5
20260509143355 81 232 0.9 5.2 0.00 0.00 0.00 60 1008.7
20260509142851 81 228 0.0 2.6 0.00 0.00 0.00 63 1008.7
20260509142348 81 223 0.9 2.6 0.00 0.00 0.00 62 1008.5
20260509141843 80 244 2.6 5.2 0.00 0.00 0.00 65 1008.5
20260509141341 79 267 3.5 5.2 0.00 0.00 0.00 67 1008.5
20260509140837 77 207 1.7 5.2 0.00 0.00 0.00 71 1008.4
20260509140334 75 234 0.9 3.5 0.00 0.00 0.00 72 1008.4
20260509135832 75 253 1.7 2.6 0.00 0.00 0.00 72 1008.5
20260509135329 76 230 1.7 3.5 0.00 0.00 0.00 70 1008.5
20260509134826 75 225 0.9 3.5 0.00 0.00 0.00 73 1008.5
20260509134323 74 240 1.7 7.0 0.00 0.00 0.00 73 1008.6
20260509133820 74 270 3.5 5.2 0.00 0.00 0.00 73 1008.8
20260509133317 74 234 0.9 3.5 0.00 0.00 0.00 73 1008.6
20260509132816 73 218 3.5 3.5 0.00 0.00 0.00 74 1008.6
20260509132314 73 226 2.6 3.5 0.00 0.00 0.00 74 1008.5
20260509131810 73 231 0.9 2.6 0.00 0.00 0.00 75 1008.6
20260509131307 73 218 1.7 3.5 0.00 0.00 0.00 74 1008.6
20260509130803 74 234 2.6 3.5 0.00 0.00 0.00 73 1008.5
20260509130259 73 235 1.7 1.7 0.00 0.00 0.00 75 1008.4
20260509125756 72 241 0.9 1.7 0.00 0.00 0.00 77 1008.3
20260509125253 71 242 0.9 1.7 0.00 0.00 0.00 78 1008.3
20260509124749 71 260 1.7 3.5 0.00 0.00 0.00 78 1008.1
20260509124245 70 248 1.7 3.5 0.00 0.00 0.00 78 1008.2
20260509123744 70 236 0.9 2.6 0.00 0.00 0.00 78 1008.6
20260509123241 69 240 0.9 0.9 0.00 0.00 0.00 79 1008.3
20260509122736 68 232 0.9 1.7 0.00 0.00 0.00 82 1008.4
20260509122233 66 237 0.0 0.0 0.00 0.00 0.00 85 1008.3
20260509121730 66 237 0.0 0.0 0.00 0.00 0.00 85 1008.1
20260509121228 65 236 0.0 0.9 0.00 0.00 0.00 87 1008.1
20260509120726 65 239 0.9 1.7 0.00 0.00 0.00 87 1008.0
20260509120223 64 238 0.9 0.9 0.00 0.00 0.00 88 1007.9
20260509115721 64 237 0.9 0.9 0.00 0.00 0.00 89 1007.8
20260509115218 64 236 0.0 0.9 0.00 0.00 0.00 89 1008.0
20260509114716 64 236 0.0 0.9 0.00 0.00 0.00 88 1007.8
20260509114215 64 235 0.0 0.9 0.00 0.00 0.00 89 1007.7
20260509113713 64 237 1.7 3.5 0.00 0.00 0.00 89 1007.6
20260509113210 64 239 1.7 1.7 0.00 0.00 0.00 89 1007.3
20260509112706 63 241 0.9 1.7 0.00 0.00 0.00 89 1007.3
20260509112203 63 239 0.0 0.9 0.00 0.00 0.00 89 1007.1
20260509111700 63 241 0.9 0.9 0.00 0.00 0.00 89 1007.3
20260509111157 63 231 0.0 0.0 0.00 0.00 0.00 88 1007.2
20260509110655 64 231 0.0 0.0 0.00 0.00 0.00 87 1006.9
20260509110151 64 231 0.0 0.0 0.00 0.00 0.00 87 1007.0
20260509105649 64 230 0.0 0.9 0.00 0.00 0.00 86 1007.2
20260509105147 65 236 0.0 0.0 0.00 0.00 0.00 85 1007.0
20260509104644 65 254 0.9 0.9 0.00 0.00 0.00 85 1007.1
20260509104140 66 235 0.0 0.9 0.00 0.00 0.00 85 1007.4
20260509103638 66 229 0.9 1.7 0.00 0.00 0.00 85 1007.3
20260509103136 66 284 1.7 2.6 0.00 0.00 0.00 85 1007.1
20260509102633 66 235 1.7 2.6 0.00 0.00 0.00 84 1007.7
20260509102130 67 237 0.9 1.7 0.00 0.00 0.00 84 1007.4
20260509101627 67 237 2.6 3.5 0.00 0.00 0.00 84 1007.5
20260509101123 68 220 2.6 5.2 0.00 0.00 0.00 84 1007.5
20260509100621 68 237 1.7 1.7 0.00 0.00 0.00 83 1007.5
20260509100118 68 226 1.7 3.5 0.00 0.00 0.00 84 1007.4
20260509095614 69 221 1.7 3.5 0.00 0.00 0.00 83 1007.5
20260509095112 69 226 0.0 0.0 0.00 0.00 0.00 81 1007.1
20260509094607 69 257 0.0 1.7 0.00 0.00 0.00 81 1006.7
20260509094105 69 262 1.7 5.2 0.00 0.00 0.00 80 1006.6
20260509093604 69 11 1.7 2.6 0.00 0.00 0.00 80 1006.3
20260509093100 69 23 1.7 5.2 0.00 0.00 0.00 79 1006.0
20260509092558 69 356 3.5 3.5 0.00 0.00 0.00 78 1006.0
20260509092056 69 251 1.7 2.6 0.00 0.00 0.00 76 1005.7
20260509091554 69 56 2.6 3.5 0.00 0.00 0.00 75 1005.6
20260509091050 70 31 4.3 7.8 0.00 0.00 0.00 75 1005.5
20260509090548 69 83 1.7 8.7 0.00 0.00 0.00 72 1005.2
20260509090045 69 148 4.3 7.0 0.00 0.00 0.00 71 1005.0
20260509085542 70 328 2.6 6.1 0.00 0.00 0.00 65 1004.5
20260509085038 69 6 3.5 5.2 0.00 0.00 0.00 65 1004.4
20260509084535 69 7 7.8 9.6 0.00 0.00 0.00 70 1004.4
20260509084032 69 303 1.7 1.7 0.00 0.00 0.00 68 1003.5
20260509083530 67 195 1.7 3.5 0.00 0.00 0.00 72 1003.5
20260509083026 67 218 0.9 2.6 0.00 0.00 0.00 77 1003.7
20260509082524 67 214 0.9 0.9 0.00 0.00 0.00 77 1003.5
20260509082021 67 223 0.9 2.6 0.00 0.00 0.00 78 1003.6
20260509081518 67 211 1.7 2.6 0.00 0.00 0.00 78 1003.3
20260509081014 67 228 0.0 0.0 0.00 0.00 0.00 80 1003.6
20260509080513 67 223 1.7 3.5 0.00 0.00 0.00 82 1004.0
20260509080011 67 239 0.0 1.7 0.00 0.00 0.00 82 1003.8
20260509075508 68 222 0.9 1.7 0.00 0.00 0.00 80 1004.2
20260509075006 68 189 1.7 1.7 0.00 0.00 0.00 80 1004.6
20260509074502 69 215 0.9 2.6 0.00 0.00 0.00 77 1005.1
20260509073959 69 245 0.9 2.6 0.00 0.00 0.00 73 1005.7
20260509073455 68 220 0.0 0.9 0.00 0.00 0.00 76 1006.1
20260509072951 68 224 0.0 1.7 0.00 0.00 0.00 78 1006.5
20260509072449 68 314 0.0 1.7 0.00 0.00 0.00 81 1006.8
20260509071945 68 235 0.9 0.9 0.00 0.00 0.00 81 1007.0
20260509071442 68 216 0.9 3.5 0.00 0.00 0.00 84 1007.4
20260509070940 68 206 0.9 1.7 0.00 0.00 0.00 87 1007.4
20260509070436 68 240 3.5 5.2 0.00 0.00 0.00 91 1007.6
20260509065932 68 199 1.7 3.5 0.00 0.00 0.00 93 1007.8
20260509065428 68 219 1.7 3.5 0.00 0.00 0.00 94 1007.9
20260509064924 68 207 0.9 2.6 0.00 0.00 0.00 94 1008.4
20260509064422 68 219 0.9 1.7 0.00 0.00 0.00 94 1008.3
20260509063920 68 208 1.7 3.5 0.00 0.00 0.00 94 1008.3
20260509063415 68 234 1.7 2.6 0.00 0.00 0.00 94 1008.3
20260509062907 68 229 1.7 5.2 0.00 0.00 0.00 94 1008.6
20260509062404 68 208 1.7 1.7 0.00 0.00 0.00 94 1009.0
20260509061901 68 221 0.9 1.7 0.00 0.00 0.00 94 1008.9
20260509061359 67 224 1.7 1.7 0.00 0.00 0.00 94 1009.0
20260509060856 67 234 2.6 3.5 0.00 0.00 0.00 94 1009.3
20260509060353 67 221 1.7 5.2 0.00 0.00 0.00 93 1009.2
20260509055848 67 236 1.7 3.5 0.00 0.00 0.00 93 1009.1
20260509055344 67 236 1.7 3.5 0.00 0.00 0.00 92 1009.3
20260509054841 67 240 0.0 0.0 0.00 0.00 0.00 92 1009.1
20260509054338 68 230 0.0 0.0 0.00 0.00 0.00 92 1008.8
20260509053836 68 235 0.0 0.0 0.00 0.00 0.00 91 1008.7
20260509053333 68 219 0.0 0.0 0.00 0.00 0.00 91 1008.6
20260509052831 68 229 0.0 0.9 0.00 0.00 0.00 91 1008.9
20260509052329 69 238 0.0 0.0 0.00 0.00 0.00 91 1009.0
20260509051826 69 242 0.0 1.7 0.00 0.00 0.00 91 1008.9
20260509051324 69 257 2.6 5.2 0.00 0.00 0.00 91 1008.8
20260509050820 69 290 3.5 7.8 0.00 0.00 0.00 91 1009.2
20260509050317 69 19 2.6 3.5 0.00 0.00 0.00 92 1009.4
20260509045814 69 288 0.9 2.6 0.00 0.25 0.25 92 1009.0
20260509045311 69 346 2.6 3.5 0.00 0.25 0.25 92 1008.8
20260509044808 68 278 1.7 2.6 0.00 0.25 0.25 91 1008.2
20260509044306 69 226 0.0 0.9 0.00 0.25 0.25 91 1007.6
20260509043802 69 226 0.0 0.0 0.00 0.25 0.25 91 1007.7
20260509043258 68 222 0.0 0.0 0.00 0.25 0.25 91 1007.6
20260509042754 68 225 0.0 0.9 0.00 0.25 0.25 91 1007.4
20260509042250 68 223 0.0 0.0 0.00 0.25 0.25 91 1007.4
20260509041747 68 218 0.0 1.7 0.00 0.25 0.25 91 1007.3
20260509041244 69 220 0.0 0.9 0.00 0.25 0.25 90 1007.2
20260509040743 69 216 0.9 1.7 0.00 0.25 0.25 90 1007.3
20260509040239 69 217 0.0 1.7 0.00 0.25 0.25 90 1007.5
20260509035736 69 220 0.0 0.9 0.00 0.25 0.25 90 1007.3
20260509035233 69 231 0.0 0.0 0.00 0.25 0.25 90 1007.3
20260509034730 69 292 0.0 0.0 0.00 0.25 0.25 89 1007.3
20260509034228 69 211 0.9 1.7 0.00 0.25 0.25 89 1007.5
20260509033725 69 225 0.0 0.9 0.00 0.25 0.25 89 1007.5
20260509033222 69 212 0.9 1.7 0.00 0.25 0.25 89 1007.4
20260509032719 69 214 0.9 2.6 0.00 0.25 0.25 88 1007.3
20260509032216 69 272 0.9 1.7 0.00 0.25 0.25 88 1007.1
20260509031713 70 182 0.0 0.9 0.00 0.25 0.25 87 1006.9
20260509031210 70 260 0.0 1.7 0.00 0.25 0.25 87 1006.9
20260509030708 70 246 0.9 0.9 0.00 0.25 0.25 86 1006.5
20260509030205 70 210 0.9 1.7 0.00 0.25 0.25 86 1006.3
20260509025701 70 218 0.9 2.6 0.00 0.25 0.25 86 1006.1
20260509025158 70 193 0.9 1.7 0.00 0.25 0.25 85 1005.9
20260509024653 70 215 1.7 3.5 0.00 0.25 0.25 85 1005.7
20260509024149 70 220 1.7 2.6 0.00 0.25 0.25 85 1005.7
20260509023647 70 160 2.6 6.1 0.00 0.25 0.25 85 1005.4
20260509023144 70 154 3.5 5.2 0.00 0.25 0.25 85 1005.0
20260509022640 70 206 1.7 3.5 0.00 0.25 0.25 85 1005.1
20260509022138 70 187 1.7 2.6 0.00 0.25 0.25 85 1005.2
20260509021635 70 183 1.7 6.1 0.00 0.25 0.25 85 1005.0
20260509021132 70 212 2.6 3.5 0.00 0.25 0.25 85 1005.0
20260509020630 70 209 1.7 2.6 0.00 0.25 0.25 85 1005.0
20260509020126 70 166 2.6 5.2 0.00 0.25 0.25 84 1004.7
20260509015626 70 206 1.7 3.5 0.00 0.25 0.25 84 1004.7
20260509015123 71 208 3.5 5.2 0.00 0.25 0.25 84 1004.8
20260509014619 71 209 1.7 3.5 0.00 0.25 0.25 84 1005.0
20260509014115 71 186 2.6 3.5 0.00 0.25 0.25 83 1005.5
20260509013613 71 220 1.7 2.6 0.00 0.25 0.25 83 1005.4
20260509013108 71 218 0.9 1.7 0.00 0.25 0.25 82 1005.5
20260509012605 71 192 1.7 2.6 0.00 0.25 0.25 82 1005.7
20260509012102 72 215 0.9 1.7 0.00 0.25 0.25 81 1005.6
20260509011600 72 214 0.9 0.9 0.00 0.25 0.25 80 1005.7
20260509011056 72 197 0.9 2.6 0.00 0.25 0.25 80 1005.6
20260509010554 72 217 0.0 3.5 0.00 0.25 0.25 80 1005.5
20260509010051 73 200 1.7 2.6 0.00 0.25 0.25 79 1005.5
20260509005549 73 218 0.9 1.7 0.00 0.25 0.25 79 1005.3
20260509005044 73 189 1.7 3.5 0.00 0.25 0.25 79 1005.3
20260509004541 73 207 0.9 2.6 0.00 0.25 0.25 78 1005.2
20260509004038 73 205 1.7 2.6 0.00 0.25 0.25 78 1005.3
20260509003536 74 209 1.7 2.6 0.00 0.25 0.25 77 1005.0
20260509003033 74 211 1.7 7.0 0.00 0.25 0.25 77 1005.2
20260509002530 74 182 3.5 6.1 0.00 0.25 0.25 77 1005.0
20260509002028 74 194 2.6 6.1 0.00 0.25 0.25 77 1005.0
20260509001525 74 229 1.7 3.5 0.00 0.25 0.25 78 1004.9
20260509001021 74 211 2.6 3.5 0.00 0.25 0.25 77 1005.0
20260509000520 75 178 2.6 3.5 0.00 0.25 0.25 76 1005.1
20260509000015 75 224 1.7 5.2 0.00 0.25 0.25 76 1005.1
20260508235513 75 215 1.7 3.5 0.00 0.25 0.25 76 1005.1
20260508235009 76 218 1.7 3.5 0.00 0.25 0.25 73 1005.3
20260508234506 75 224 0.9 3.5 0.00 0.25 0.25 74 1005.4
20260508234003 75 202 1.7 3.5 0.00 0.25 0.25 74 1005.4
20260508233503 76 165 3.5 5.2 0.00 0.25 0.25 72 1005.5
20260508232959 76 173 5.2 6.1 0.00 0.25 0.25 71 1005.5
20260508232456 76 177 2.6 2.6 0.00 0.25 0.25 72 1005.8
20260508231953 76 197 2.6 3.5 0.00 0.25 0.25 73 1005.5
20260508231451 76 182 1.7 6.1 0.00 0.25 0.25 72 1005.5
20260508230948 77 203 1.7 6.1 0.00 0.25 0.25 71 1005.6
20260508230444 77 209 0.9 3.5 0.00 0.25 0.25 70 1005.7
20260508225941 76 190 1.7 5.2 0.00 0.25 0.25 70 1005.8
20260508225438 76 192 4.3 9.6 0.00 0.25 0.25 70 1005.5
20260508224935 76 217 1.7 5.2 0.00 0.25 0.25 70 1005.5
20260508224433 76 224 1.7 3.5 0.00 0.25 0.25 71 1005.6
20260508223930 76 184 4.3 7.0 0.00 0.25 0.25 70 1005.4
20260508223428 77 165 2.6 3.5 0.00 0.25 0.25 70 1005.5
20260508222925 77 151 3.5 7.8 0.00 0.25 0.25 69 1005.5
20260508222423 77 225 2.6 6.1 0.00 0.25 0.25 69 1005.6
20260508221919 76 179 3.5 5.2 0.00 0.25 0.25 70 1005.7
20260508221414 76 175 2.6 7.0 0.00 0.25 0.25 71 1005.7
20260508220911 76 185 4.3 8.7 0.00 0.25 0.25 68 1005.8
20260508220407 77 154 5.2 9.6 0.00 0.25 0.25 69 1005.4
20260508215904 77 176 2.6 8.7 0.00 0.25 0.25 68 1005.4
20260508215401 77 198 1.7 3.5 0.00 0.25 0.25 68 1005.4
20260508214857 77 156 5.2 7.0 0.00 0.25 0.25 66 1005.7
20260508214355 77 214 2.6 7.0 0.00 0.25 0.25 67 1005.6
20260508213851 77 198 1.7 3.5 0.00 0.25 0.25 69 1005.5
20260508213348 77 203 3.5 6.1 0.00 0.25 0.25 66 1005.8
20260508212844 77 172 3.5 6.1 0.00 0.25 0.25 67 1005.8
20260508212341 77 123 4.3 7.0 0.00 0.25 0.25 66 1005.8
20260508211836 78 165 7.0 11.3 0.00 0.25 0.25 65 1006.0